Terminal Aerodrome Forecast
Issued by NWS Milwaukee/Sullivan, WI

Home | Current Version | Previous Version | Text Only | Print | Product List | Glossary On
Versions: 1 2 3 4 5 6 7 8 9 10 11 12 13 14 15 16 17 18 19 20 21 22 23 24 25 26 27 28 29 30 31 32 33 34 35 36 37 38 39 40 41 42 43 44 45 46 47 48 49 50
000
FTUS43 KMKX 200520
TAFMKE
TAF
KMKE 200520Z 2006/2112 29004KT P6SM FEW040
     FM201600 29006KT P6SM SCT030
     FM201800 27007KT P6SM BKN035
     FM202200 13006KT P6SM BKN040
     FM210000 12005KT P6SM SCT040
     FM210800 14004KT P6SM BKN090=

USA.gov is the U.S. government's official web portal to all federal, state and local government web resources and services.